Glasgow, United Kingdom

8:01 AM BST on April 27, 2018 (GMT +0100)
Glasgow

Weather History for EGPF - January, 2013

Change the Weather History Date:

Saturday, January 26, 2013

  Actual Average Record
Temperature  
Mean Temperature 40 °F -  
Max Temperature 48 °F 44 °F 53 °F (2003)
Min Temperature 33 °F 32 °F 19 °F (1998)
Degree Days  
Heating Degree Days 24    
Moisture  
Dew Point 36 °F    
Average Humidity 88    
Maximum Humidity 100    
Minimum Humidity 76    
Precipitation  
Precipitation 0.00 in - - ()
Sea Level Pressure  
Sea Level Pressure 29.39 in    
Wind  
Wind Speed 7 mph ()    
Max Wind Speed 18 mph    
Max Gust Speed -    
Visibility 5.4 miles    
Events Rain    
Averages and records for this station are not official NWS values.
T = Trace of Precipitation, MM = Missing Value Source: Averaged Metar Reports

Daily Weather History Graph

Daily Weather History Graph

Search for Another Location

Airport or City:

Astronomy

Jan. 26, 2013 Rise Set
Actual Time 8:22 AM GMT 4:38 PM GMT
Civil Twilight 7:40 AM GMT 5:20 PM GMT
Nautical Twilight 6:54 AM GMT 6:06 PM GMT
Astronomical Twilight 6:11 AM GMT 6:50 PM GMT
Moon 4:26 PM GMT (1/26) 7:27 AM GMT (1/26)
Length of Visible Light 9h 40m
Length of Day
8h 16m
Full, 100% of the Moon is Illuminated
Jan 26
Full
Jan 27
Full
Feb 3
Last Quarter
Feb 10
New
Feb 17
First Quarter

Hourly Weather History & Observations

Time (GMT) Temp. Windchill Dew Point Humidity Pressure Visibility Wind Dir Wind Speed Gust Speed Precip Events Conditions
12:20 AM 33.8 °F - 33.8 °F 100% 29.42 in 1.9 mi Calm Calm - N/A   Light Drizzle
12:50 AM 33.8 °F 30.8 °F 33.8 °F 100% 29.42 in 1.1 mi West 3.5 mph - N/A   Light Drizzle
1:20 AM 33.8 °F - 33.8 °F 100% 29.42 in 1.5 mi West 2.3 mph - N/A   Light Drizzle
1:50 AM 33.8 °F - 33.8 °F 100% 29.44 in 1.7 mi NNW 2.3 mph - N/A   Light Drizzle
2:20 AM 33.8 °F 30.8 °F 32.0 °F 93% 29.44 in 6.2 mi Variable 3.5 mph - N/A   Partly Cloudy
2:50 AM 33.8 °F 29.6 °F 33.8 °F 100% 29.44 in 6.2 mi SE 4.6 mph - N/A   Scattered Clouds
3:20 AM 37.4 °F 30.8 °F 35.6 °F 93% 29.44 in 6.2 mi SSW 9.2 mph - N/A   Scattered Clouds
3:50 AM 39.2 °F 33.6 °F 33.8 °F 81% 29.47 in 6.2 mi WSW 8.1 mph - N/A   Mostly Cloudy
4:20 AM 35.6 °F 29.9 °F 32.0 °F 87% 29.47 in 6.2 mi WSW 6.9 mph - N/A   Unknown
4:50 AM 35.6 °F 28.0 °F 32.0 °F 87% 29.47 in 6.2 mi SW 10.4 mph - N/A   Scattered Clouds
5:20 AM 37.4 °F 33.8 °F 33.8 °F 87% 29.47 in 6.2 mi WNW 4.6 mph - N/A   Scattered Clouds
5:50 AM 35.6 °F 29.2 °F 32.0 °F 87% 29.47 in 6.2 mi WSW 8.1 mph - N/A   Mostly Cloudy
6:20 AM 35.6 °F 28.6 °F 32.0 °F 87% 29.50 in 6.2 mi WSW 9.2 mph - N/A   Partly Cloudy
6:50 AM 33.8 °F 25.8 °F 32.0 °F 93% 29.50 in 6.2 mi SW 10.4 mph - N/A   Scattered Clouds
7:20 AM 33.8 °F 25.8 °F 32.0 °F 93% 29.50 in 6.2 mi SW 10.4 mph - N/A   Partly Cloudy
7:50 AM 35.6 °F 29.2 °F 32.0 °F 87% 29.53 in 6.2 mi West 8.1 mph - N/A   Scattered Clouds
8:20 AM 37.4 °F 28.5 °F 33.8 °F 87% 29.53 in 6.2 mi WSW 15.0 mph - N/A   Mostly Cloudy
8:50 AM 37.4 °F 29.3 °F 33.8 °F 87% 29.53 in 6.2 mi West 12.7 mph - N/A   Partly Cloudy
9:20 AM 35.6 °F 29.9 °F 32.0 °F 87% 29.53 in 6.2 mi SW 6.9 mph - N/A   Partly Cloudy
9:50 AM 35.6 °F 30.7 °F 33.8 °F 93% 29.53 in 6.2 mi WSW 5.8 mph - N/A   Partly Cloudy
10:20 AM 37.4 °F 30.3 °F 33.8 °F 87% 29.56 in 6.2 mi WSW 10.4 mph - N/A   Partly Cloudy
10:50 AM 39.2 °F 33.6 °F 35.6 °F 87% 29.56 in 6.2 mi SW 8.1 mph - N/A   Partly Cloudy
11:20 AM 41.0 °F 33.5 °F 35.6 °F 81% 29.56 in 6.2 mi WSW 13.8 mph - N/A   Partly Cloudy
11:50 AM 42.8 °F 36.2 °F 37.4 °F 81% 29.56 in 6.2 mi SW 12.7 mph - N/A   Partly Cloudy
12:20 PM 42.8 °F 35.8 °F 37.4 °F 81% 29.53 in 6.2 mi SSW 13.8 mph - N/A   Partly Cloudy
12:50 PM 42.8 °F 36.2 °F 35.6 °F 76% 29.53 in 6.2 mi SW 12.7 mph - N/A   Partly Cloudy
1:20 PM 42.8 °F 36.2 °F 37.4 °F 81% 29.50 in 6.2 mi SW 12.7 mph - N/A   Partly Cloudy
1:50 PM 42.8 °F 36.6 °F 37.4 °F 81% 29.50 in 6.2 mi SSW 11.5 mph - N/A   Partly Cloudy
2:20 PM 42.8 °F 37.0 °F 37.4 °F 81% 29.50 in 6.2 mi SSW 10.4 mph - N/A   Scattered Clouds
2:50 PM 42.8 °F 36.2 °F 37.4 °F 81% 29.47 in 6.2 mi SSW 12.7 mph - N/A   Partly Cloudy
3:20 PM 41.0 °F 35.2 °F 35.6 °F 81% 29.44 in 6.2 mi South 9.2 mph - N/A   Partly Cloudy
3:50 PM 41.0 °F 34.7 °F 35.6 °F 81% 29.42 in 6.2 mi SSE 10.4 mph - N/A Rain Light Rain
4:20 PM 41.0 °F 35.8 °F 35.6 °F 81% 29.42 in 6.2 mi SE 8.1 mph - N/A Rain Light Rain
4:50 PM 41.0 °F 34.3 °F 35.6 °F 81% 29.39 in 6.2 mi SSE 11.5 mph - N/A Rain Light Rain
5:20 PM 41.0 °F 34.3 °F 37.4 °F 87% 29.36 in 5.6 mi SE 11.5 mph - N/A Rain Light Rain
5:50 PM 41.0 °F 35.2 °F 39.2 °F 93% 29.33 in 5.6 mi ESE 9.2 mph - N/A Rain Light Rain
6:20 PM 41.0 °F 36.4 °F 39.2 °F 93% 29.30 in 5.0 mi East 6.9 mph - N/A Rain Light Rain
6:50 PM 41.0 °F 35.8 °F 39.2 °F 93% 29.27 in 5.6 mi ESE 8.1 mph - N/A Rain Light Rain
7:20 PM 42.8 °F 38.6 °F 41.0 °F 93% 29.24 in 4.3 mi ESE 6.9 mph - N/A Rain Light Rain
7:50 PM 42.8 °F 39.3 °F 41.0 °F 93% 29.21 in 5.0 mi East 5.8 mph - N/A Rain Light Rain
8:20 PM 44.6 °F 41.4 °F 41.0 °F 87% 29.15 in 3.1 mi ESE 5.8 mph - N/A Rain Rain
8:50 PM 44.6 °F 42.2 °F 42.8 °F 93% 29.12 in 4.3 mi Variable 4.6 mph - N/A Rain Light Rain
9:50 PM 46.4 °F 42.9 °F 44.6 °F 93% 29.06 in 5.6 mi South 6.9 mph - N/A Rain Rain
10:20 PM 46.4 °F 41.9 °F 44.6 °F 93% 29.03 in 3.1 mi South 9.2 mph - N/A Rain Rain
10:50 PM 48.2 °F - 44.6 °F 87% 28.97 in 3.7 mi SSE 12.7 mph - N/A Rain Rain
11:20 PM 48.2 °F - 44.6 °F 87% 28.94 in 4.3 mi South 12.7 mph - N/A Rain Rain
11:50 PM 48.2 °F - 46.4 °F 93% 28.91 in 4.3 mi South 18.4 mph - N/A Rain Rain